GFSNGP_500_temp_057.txt.gz
Temp
-17 -17 -16 -16 -15 -16 -17 -15 -14 -13 -12 -11 -11 -11 -11 -9 -7 -7 -9 -9 -8 -8 -8 -8 -7 -7 -8 -7 -7 -7 -6 -6 -6 -5 -5 -5 -5 -5 -5 -5 -5 -5 -5 -5
-18 -18 -17 -17 -15 -15 -14 -14 -14 -12 -12 -11 -10 -10 -10 -10 -9 -8 -7 -7 -7 -7 -8 -8 -8 -7 -7 -7 -7 -7 -7 -6 -6 -6 -5 -5 -5 -5 -5 -5 -5 -5 -5 -5
-21 -21 -19 -18 -17 -16 -15 -14 -14 -14 -11 -11 -11 -10 -10 -11 -9 -7 -7 -7 -7 -7 -7 -8 -8 -7 -7 -7 -7 -7 -7 -6 -6 -6 -6 -5 -5 -5 -5 -4 -5 -5 -5 -5
-20 -21 -21 -19 -19 -18 -17 -15 -14 -14 -14 -12 -11 -10 -10 -10 -8 -7 -7 -7 -7 -7 -7 -8 -8 -7 -7 -7 -7 -8 -8 -7 -6 -6 -6 -6 -5 -5 -5 -5 -4 -5 -5 -5
-22 -21 -21 -21 -21 -19 -17 -15 -16 -16 -14 -14 -12 -11 -10 -10 -10 -8 -8 -8 -8 -7 -8 -8 -8 -7 -7 -7 -7 -7 -8 -7 -7 -6 -6 -6 -5 -5 -5 -5 -5 -5 -5 -5
-22 -22 -22 -21 -21 -20 -18 -16 -17 -16 -14 -14 -14 -12 -11 -11 -9 -9 -8 -8 -8 -8 -8 -8 -8 -7 -8 -7 -7 -7 -7 -7 -7 -7 -6 -6 -6 -6 -5 -5 -5 -5 -5 -5
-23 -22 -23 -22 -21 -20 -19 -17 -17 -17 -15 -14 -14 -14 -13 -10 -9 -10 -8 -8 -8 -8 -8 -8 -8 -7 -7 -8 -8 -8 -8 -8 -8 -7 -8 -7 -6 -6 -6 -5 -5 -5 -5 -5
-23 -23 -22 -22 -21 -21 -19 -18 -16 -16 -15 -15 -14 -12 -11 -9 -9 -10 -9 -8 -8 -8 -8 -8 -8 -7 -7 -8 -8 -8 -8 -8 -8 -8 -8 -8 -6 -6 -6 -5 -5 -5 -5 -6
-23 -22 -22 -22 -21 -20 -19 -18 -17 -16 -16 -16 -15 -13 -10 -10 -10 -10 -10 -9 -8 -8 -8 -8 -7 -8 -7 -8 -8 -8 -8 -8 -8 -8 -8 -8 -7 -6 -6 -6 -6 -6 -6 -6
-22 -21 -21 -21 -20 -19 -19 -17 -17 -16 -15 -15 -15 -13 -11 -10 -10 -10 -10 -9 -9 -8 -8 -7 -7 -7 -7 -7 -7 -8 -8 -8 -8 -7 -8 -7 -7 -6 -6 -6 -6 -6 -6 -6
-20 -20 -20 -19 -19 -19 -18 -17 -15 -16 -15 -15 -15 -13 -11 -11 -11 -10 -10 -10 -9 -8 -8 -7 -6 -6 -6 -7 -7 -7 -8 -8 -8 -7 -7 -7 -7 -7 -7 -7 -6 -6 -6 -7
-19 -19 -19 -19 -19 -18 -18 -17 -16 -16 -15 -15 -14 -13 -11 -11 -10 -10 -11 -10 -9 -9 -8 -7 -7 -6 -6 -7 -7 -7 -7 -8 -8 -8 -7 -7 -7 -7 -7 -7 -7 -7 -7 -8
-19 -19 -18 -19 -18 -18 -17 -16 -16 -15 -15 -15 -13 -13 -11 -11 -10 -10 -10 -10 -10 -9 -8 -8 -7 -7 -7 -6 -7 -7 -7 -8 -8 -8 -8 -8 -8 -7 -7 -8 -8 -8 -8 -8
-19 -18 -18 -17 -17 -18 -17 -17 -16 -16 -13 -14 -14 -13 -12 -11 -11 -11 -10 -11 -10 -9 -9 -8 -7 -7 -7 -7 -7 -7 -7 -8 -8 -8 -8 -8 -8 -8 -8 -8 -9 -8 -9 -9
-19 -19 -18 -18 -17 -17 -17 -17 -15 -16 -14 -13 -13 -13 -12 -11 -11 -11 -11 -11 -10 -10 -9 -8 -8 -7 -7 -7 -7 -7 -7 -8 -8 -9 -8 -8 -8 -8 -9 -9 -9 -8 -9 -9
-19 -20 -19 -18 -18 -17 -17 -16 -16 -16 -14 -12 -12 -13 -12 -11 -11 -11 -11 -11 -10 -10 -10 -9 -9 -8 -8 -8 -8 -8 -8 -8 -8 -8 -8 -8 -8 -8 -8 -7 -8 -8 -9 -9
-19 -19 -19 -20 -18 -18 -17 -16 -16 -15 -15 -13 -14 -13 -13 -12 -11 -11 -11 -11 -11 -10 -10 -10 -9 -9 -9 -8 -9 -9 -9 -9 -9 -8 -8 -8 -8 -9 -8 -8 -8 -8 -9 -8
-20 -19 -19 -19 -19 -19 -17 -16 -15 -15 -15 -15 -14 -13 -12 -12 -11 -11 -11 -11 -11 -11 -10 -10 -10 -9 -9 -9 -9 -9 -9 -9 -8 -9 -9 -8 -9 -8 -8 -9 -9 -9 -8 -8
-19 -19 -19 -19 -19 -18 -18 -17 -16 -15 -15 -14 -13 -13 -13 -12 -12 -11 -11 -11 -11 -11 -11 -10 -10 -9 -9 -9 -9 -9 -9 -9 -9 -9 -9 -9 -8 -8 -9 -8 -9 -9 -9 -9
-19 -19 -19 -19 -19 -19 -18 -19 -18 -17 -14 -14 -14 -13 -14 -14 -12 -12 -12 -11 -11 -11 -11 -11 -11 -10 -10 -10 -9 -9 -9 -9 -10 -9 -10 -9 -9 -9 -9 -9 -9 -9 -9 -9
-19 -19 -19 -19 -19 -19 -19 -19 -19 -19 -18 -16 -14 -14 -14 -13 -12 -12 -12 -12 -12 -10 -11 -11 -11 -11 -11 -11 -10 -10 -9 -9 -10 -9 -10 -9 -9 -9 -9 -10 -10 -10 -10 -9
-21 -20 -20 -20 -20 -19 -19 -19 -19 -18 -18 -18 -17 -15 -13 -13 -13 -13 -12 -12 -12 -12 -12 -12 -12 -12 -11 -11 -11 -11 -11 -10 -11 -9 -9 -9 -9 -9 -10 -10 -10 -10 -10 -10
-22 -22 -21 -21 -21 -21 -20 -20 -19 -19 -19 -18 -17 -17 -16 -15 -14 -13 -13 -12 -12 -12 -13 -12 -11 -11 -12 -12 -11 -11 -11 -10 -10 -9 -9 -9 -9 -8 -9 -9 -10 -10 -10 -10
-22 -22 -22 -22 -22 -21 -21 -20 -20 -19 -19 -19 -18 -17 -17 -16 -15 -14 -14 -13 -13 -13 -13 -12 -12 -11 -11 -11 -12 -11 -11 -11 -11 -11 -11 -11 -10 -10 -10 -10 -10 -10 -10 -10
-22 -22 -23 -23 -22 -22 -22 -21 -21 -20 -20 -19 -19 -18 -18 -17 -16 -16 -16 -15 -14 -13 -12 -12 -12 -12 -11 -11 -11 -11 -11 -11 -10 -10 -10 -10 -10 -10 -10 -10 -11 -11 -11 -11
-23 -23 -23 -23 -23 -23 -23 -22 -22 -21 -21 -20 -20 -19 -19 -18 -18 -17 -16 -16 -15 -15 -14 -14 -14 -13 -12 -12 -12 -12 -11 -11 -11 -11 -10 -10 -10 -9 -9 -9 -10 -10 -10 -10
-24 -24 -24 -24 -23 -23 -23 -23 -23 -22 -22 -21 -21 -20 -20 -19 -19 -19 -18 -18 -17 -16 -16 -15 -15 -15 -14 -13 -12 -12 -12 -12 -11 -11 -11 -11 -10 -10 -11 -10 -10 -9 -9 -10

GFSNGP_500_temp_063.txt.gz
Temp
-14 -14 -16 -14 -15 -15 -14 -13 -11 -10 -9 -11 -9 -10 -10 -10 -10 -9 -9 -10 -10 -9 -9 -4 -5 -6 -6 -7 -7 -7 -7 -6 -6 -5 -5 -5 -5 -4 -5 -5 -5 -5 -4 -5
-15 -15 -16 -16 -15 -15 -15 -13 -12 -11 -10 -12 -10 -9 -11 -10 -11 -11 -10 -10 -8 -7 -6 -6 -6 -7 -6 -7 -8 -8 -7 -7 -6 -6 -5 -5 -5 -5 -5 -5 -5 -5 -5 -5
-17 -18 -18 -16 -15 -15 -14 -14 -13 -13 -13 -12 -10 -9 -11 -11 -10 -11 -10 -9 -5 -6 -6 -6 -5 -4 -5 -5 -8 -8 -8 -8 -7 -6 -6 -5 -5 -5 -5 -5 -5 -5 -5 -5
-19 -20 -21 -15 -17 -17 -16 -14 -13 -14 -14 -13 -11 -10 -10 -10 -10 -11 -11 -9 -9 -7 -7 -5 -4 -4 -5 -4 -6 -7 -8 -8 -8 -7 -7 -6 -6 -6 -5 -5 -5 -5 -5 -5
-20 -21 -20 -20 -19 -18 -17 -16 -15 -14 -14 -14 -12 -11 -9 -10 -10 -10 -10 -10 -9 -9 -8 -7 -6 -5 -5 -7 -7 -7 -7 -7 -8 -8 -7 -7 -6 -6 -6 -5 -5 -5 -5 -5
-21 -21 -21 -20 -20 -20 -19 -17 -16 -16 -16 -14 -13 -12 -12 -10 -10 -11 -10 -9 -9 -8 -8 -8 -7 -6 -6 -6 -5 -7 -7 -7 -8 -8 -8 -7 -7 -6 -6 -6 -5 -5 -5 -5
-21 -21 -21 -21 -21 -20 -20 -18 -18 -17 -16 -15 -14 -14 -12 -11 -10 -11 -10 -10 -10 -8 -9 -10 -9 -9 -5 -5 -6 -7 -7 -7 -8 -8 -8 -8 -8 -7 -6 -6 -5 -5 -5 -5
-21 -21 -21 -20 -20 -20 -20 -20 -19 -18 -17 -16 -15 -15 -13 -12 -11 -11 -11 -10 -10 -10 -10 -10 -9 -9 -6 -5 -5 -6 -8 -7 -8 -8 -8 -8 -8 -7 -7 -6 -6 -6 -5 -5
-21 -21 -21 -21 -21 -20 -20 -20 -20 -19 -19 -17 -16 -16 -14 -12 -11 -11 -11 -10 -11 -9 -10 -9 -9 -9 -8 -7 -7 -7 -8 -7 -7 -8 -8 -8 -8 -8 -8 -7 -6 -6 -6 -6
-21 -21 -21 -21 -21 -21 -20 -20 -19 -19 -19 -18 -17 -17 -15 -14 -12 -11 -12 -12 -10 -10 -10 -11 -9 -9 -9 -7 -7 -7 -7 -8 -8 -8 -8 -8 -8 -8 -8 -7 -7 -6 -6 -6
-20 -20 -20 -20 -21 -21 -21 -20 -20 -19 -19 -18 -19 -18 -15 -14 -13 -11 -12 -12 -12 -11 -11 -10 -9 -9 -8 -8 -7 -8 -7 -7 -8 -8 -8 -8 -8 -8 -8 -8 -8 -7 -7 -6
-20 -20 -19 -20 -20 -20 -19 -20 -20 -20 -19 -19 -19 -19 -16 -14 -14 -12 -12 -12 -12 -12 -11 -10 -10 -9 -9 -8 -7 -8 -8 -7 -7 -7 -8 -8 -8 -8 -8 -8 -8 -8 -8 -7
-20 -20 -20 -19 -20 -19 -19 -19 -19 -18 -19 -20 -19 -19 -18 -15 -14 -13 -12 -12 -12 -12 -13 -12 -11 -10 -10 -9 -8 -8 -7 -7 -7 -7 -8 -8 -8 -8 -8 -8 -8 -8 -8 -8
-19 -20 -20 -19 -19 -19 -19 -19 -19 -19 -19 -19 -20 -19 -18 -16 -15 -14 -13 -12 -12 -13 -12 -13 -12 -10 -10 -9 -9 -8 -7 -7 -7 -7 -7 -7 -8 -8 -8 -8 -8 -8 -8 -8
-20 -20 -20 -20 -20 -19 -19 -19 -19 -19 -18 -19 -20 -19 -18 -17 -15 -14 -14 -13 -13 -12 -12 -12 -12 -11 -10 -9 -9 -8 -7 -7 -7 -7 -7 -7 -7 -8 -8 -8 -8 -8 -8 -8
-19 -18 -19 -20 -20 -19 -19 -20 -19 -19 -18 -19 -19 -18 -18 -17 -16 -15 -14 -14 -13 -13 -12 -11 -11 -10 -10 -9 -9 -8 -7 -7 -6 -7 -7 -7 -7 -8 -8 -8 -9 -9 -8 -8
-20 -20 -19 -19 -20 -20 -19 -19 -19 -19 -18 -18 -18 -18 -18 -17 -16 -15 -14 -14 -13 -12 -12 -11 -11 -10 -10 -10 -9 -9 -8 -7 -6 -6 -6 -6 -7 -7 -8 -8 -8 -9 -9 -8
-20 -20 -20 -19 -19 -20 -19 -20 -19 -19 -19 -18 -17 -17 -17 -17 -16 -15 -14 -13 -13 -12 -12 -12 -11 -10 -9 -9 -9 -9 -8 -7 -7 -6 -5 -6 -7 -7 -7 -7 -8 -8 -8 -8
-21 -21 -20 -20 -20 -20 -20 -19 -20 -19 -19 -19 -18 -17 -17 -16 -15 -15 -16 -14 -13 -13 -13 -13 -12 -11 -9 -9 -9 -9 -9 -8 -7 -7 -7 -7 -10 -9 -8 -8 -8 -8 -8 -8
-21 -20 -20 -20 -20 -21 -20 -20 -19 -20 -20 -19 -19 -18 -17 -17 -16 -16 -15 -14 -14 -13 -13 -13 -12 -11 -10 -10 -10 -10 -10 -8 -8 -9 -9 -8 -9 -8 -8 -8 -8 -9 -8 -7
-21 -21 -21 -21 -20 -21 -20 -21 -21 -20 -19 -19 -20 -19 -19 -17 -16 -15 -15 -14 -15 -14 -13 -12 -11 -10 -11 -10 -10 -10 -10 -9 -10 -8 -8 -9 -7 -8 -7 -8 -7 -8 -7 -6
-22 -22 -23 -22 -21 -21 -21 -21 -21 -21 -21 -20 -20 -20 -20 -19 -18 -16 -15 -14 -14 -14 -13 -12 -12 -12 -10 -10 -11 -11 -11 -10 -10 -9 -9 -9 -9 -8 -8 -8 -8 -8 -9 -9
-23 -22 -23 -23 -23 -22 -22 -21 -21 -21 -21 -21 -20 -20 -20 -21 -19 -18 -16 -15 -15 -14 -13 -12 -12 -12 -11 -12 -11 -11 -11 -10 -10 -10 -10 -9 -9 -9 -9 -9 -9 -9 -9 -9
-23 -23 -23 -24 -23 -23 -23 -22 -22 -22 -22 -21 -21 -21 -20 -20 -21 -21 -18 -17 -15 -15 -14 -13 -12 -12 -12 -11 -11 -11 -12 -10 -11 -10 -10 -10 -10 -10 -10 -10 -9 -9 -9 -10
-23 -23 -23 -24 -23 -23 -24 -23 -23 -22 -22 -22 -21 -21 -21 -20 -20 -20 -20 -20 -18 -16 -15 -14 -14 -14 -13 -12 -12 -12 -11 -11 -11 -11 -11 -10 -10 -11 -10 -10 -10 -10 -9 -10
-23 -24 -24 -24 -24 -24 -24 -24 -24 -23 -23 -23 -22 -22 -21 -21 -20 -20 -20 -19 -19 -19 -18 -16 -15 -14 -14 -13 -13 -13 -13 -13 -12 -12 -12 -11 -11 -11 -11 -10 -10 -10 -9 -9
-24 -23 -24 -25 -25 -25 -25 -25 -25 -24 -25 -24 -23 -23 -22 -21 -21 -21 -21 -20 -19 -19 -18 -18 -17 -16 -15 -14 -13 -14 -13 -13 -13 -13 -12 -11 -11 -11 -11 -11 -10 -10 -11 -11

GFSNGP_500_temp_069.txt.gz
Temp
-13 -13 -13 -13 -13 -13 -12 -12 -12 -11 -10 -9 -9 -9 -9 -9 -9 -9 -8 -8 -7 -6 -6 -6 -7 -6 -7 -6 -6 -6 -5 -6 -6 -6 -6 -6 -6 -6 -6 -6 -6 -6 -5 -5
-13 -13 -13 -13 -14 -14 -14 -14 -13 -12 -11 -10 -11 -10 -10 -10 -10 -9 -9 -8 -8 -8 -7 -5 -6 -6 -6 -6 -7 -6 -6 -6 -6 -6 -6 -6 -6 -6 -6 -6 -6 -6 -6 -5
-14 -14 -13 -14 -14 -14 -14 -15 -14 -13 -13 -11 -11 -11 -11 -10 -10 -10 -9 -8 -8 -8 -8 -7 -7 -6 -6 -7 -7 -7 -7 -6 -6 -6 -5 -5 -6 -6 -5 -5 -6 -6 -6 -6
-14 -14 -13 -14 -14 -15 -14 -14 -14 -14 -14 -13 -12 -12 -12 -11 -11 -10 -9 -10 -9 -8 -8 -8 -6 -7 -7 -6 -6 -7 -7 -7 -7 -6 -6 -6 -6 -5 -5 -6 -5 -5 -6 -6
-14 -14 -14 -15 -16 -16 -15 -15 -15 -14 -15 -14 -13 -13 -13 -12 -11 -11 -11 -9 -10 -9 -8 -8 -7 -9 -8 -7 -8 -8 -7 -7 -7 -7 -7 -6 -6 -5 -5 -5 -5 -6 -6 -6
-16 -16 -16 -16 -17 -17 -17 -16 -16 -15 -15 -15 -15 -14 -14 -13 -12 -11 -12 -11 -10 -10 -8 -8 -7 -7 -9 -9 -9 -8 -7 -7 -7 -7 -7 -7 -6 -6 -6 -5 -6 -6 -6 -6
-16 -16 -16 -17 -19 -19 -19 -17 -17 -16 -16 -15 -15 -15 -15 -14 -13 -12 -11 -13 -12 -11 -10 -8 -8 -9 -8 -7 -7 -8 -7 -7 -7 -7 -7 -7 -7 -7 -6 -6 -6 -6 -6 -6
-16 -16 -17 -17 -19 -20 -20 -20 -20 -19 -19 -17 -16 -16 -16 -16 -15 -14 -13 -12 -13 -11 -11 -9 -9 -9 -8 -8 -8 -8 -8 -8 -8 -7 -7 -8 -8 -8 -7 -6 -6 -6 -6 -7
-17 -17 -17 -18 -18 -19 -19 -20 -20 -20 -20 -20 -18 -16 -17 -17 -16 -15 -13 -13 -13 -12 -12 -11 -10 -10 -9 -9 -8 -8 -8 -8 -9 -8 -8 -8 -8 -8 -8 -8 -7 -7 -7 -7
-17 -18 -18 -18 -18 -19 -19 -19 -20 -20 -20 -20 -20 -19 -19 -18 -17 -16 -15 -13 -13 -13 -12 -11 -10 -9 -10 -9 -8 -10 -9 -9 -9 -7 -8 -8 -8 -9 -9 -8 -8 -7 -7 -7
-18 -19 -19 -19 -19 -19 -19 -19 -19 -20 -20 -20 -20 -20 -20 -19 -18 -18 -17 -15 -14 -13 -12 -13 -11 -10 -10 -10 -9 -10 -9 -9 -9 -9 -9 -8 -9 -8 -8 -8 -8 -8 -8 -8
-18 -18 -18 -19 -20 -20 -19 -19 -19 -19 -20 -20 -19 -19 -19 -19 -19 -18 -18 -17 -15 -14 -13 -12 -12 -11 -11 -10 -11 -9 -8 -8 -9 -9 -9 -9 -9 -9 -8 -8 -8 -8 -8 -8
-18 -19 -19 -19 -19 -19 -19 -20 -20 -19 -19 -19 -19 -19 -19 -19 -19 -19 -18 -17 -16 -14 -14 -14 -12 -12 -12 -10 -11 -10 -10 -9 -8 -8 -9 -8 -9 -8 -8 -8 -8 -8 -9 -8
-19 -19 -19 -19 -19 -19 -19 -19 -19 -20 -19 -19 -19 -18 -19 -19 -19 -19 -19 -18 -17 -15 -14 -14 -13 -12 -12 -11 -11 -11 -9 -9 -10 -9 -8 -9 -8 -8 -8 -8 -8 -9 -8 -8
-19 -19 -20 -19 -19 -19 -19 -19 -19 -20 -20 -19 -19 -19 -19 -18 -18 -18 -18 -18 -18 -16 -15 -14 -14 -13 -12 -12 -11 -10 -9 -10 -10 -10 -9 -8 -9 -9 -8 -8 -9 -9 -8 -8
-20 -20 -20 -20 -20 -20 -19 -19 -19 -19 -19 -19 -19 -19 -18 -18 -18 -18 -18 -19 -19 -18 -16 -15 -14 -13 -13 -12 -12 -10 -9 -10 -10 -10 -9 -9 -9 -9 -9 -9 -9 -8 -8 -8
-20 -21 -20 -20 -19 -19 -19 -19 -19 -19 -19 -20 -20 -20 -19 -19 -18 -19 -19 -20 -19 -19 -17 -15 -14 -13 -13 -12 -12 -11 -10 -10 -9 -10 -9 -8 -8 -7 -7 -7 -7 -7 -8 -8
-21 -21 -21 -20 -20 -20 -19 -20 -19 -19 -19 -19 -20 -20 -20 -20 -19 -19 -19 -19 -19 -19 -19 -17 -15 -14 -13 -12 -12 -11 -11 -10 -10 -11 -9 -9 -8 -8 -7 -7 -7 -7 -7 -8
-21 -21 -21 -20 -21 -21 -21 -22 -21 -20 -20 -20 -20 -20 -20 -21 -20 -19 -19 -19 -19 -19 -19 -19 -17 -15 -14 -13 -12 -12 -12 -11 -10 -10 -10 -10 -9 -8 -8 -8 -8 -8 -8 -8
-22 -21 -21 -21 -22 -22 -23 -23 -22 -22 -21 -21 -21 -21 -21 -20 -21 -21 -20 -19 -19 -19 -19 -19 -19 -16 -14 -13 -13 -12 -12 -12 -11 -11 -10 -11 -11 -9 -9 -8 -9 -9 -8 -8
-22 -22 -23 -23 -23 -22 -23 -23 -23 -22 -22 -22 -22 -21 -21 -22 -21 -21 -20 -20 -19 -18 -19 -18 -19 -18 -15 -13 -13 -12 -12 -12 -12 -12 -11 -11 -10 -10 -9 -9 -8 -8 -8 -7
-22 -23 -23 -23 -23 -23 -23 -23 -23 -22 -22 -22 -22 -22 -22 -21 -21 -21 -21 -21 -20 -19 -18 -18 -18 -18 -17 -14 -13 -13 -12 -12 -12 -12 -12 -10 -10 -9 -9 -9 -8 -8 -8 -7
-22 -23 -23 -23 -23 -23 -23 -23 -23 -23 -23 -23 -23 -22 -22 -22 -22 -22 -22 -21 -21 -21 -20 -18 -18 -17 -17 -16 -14 -14 -14 -12 -12 -12 -12 -12 -10 -10 -9 -9 -9 -9 -9 -7
-23 -23 -23 -23 -24 -23 -23 -24 -24 -24 -24 -24 -23 -23 -23 -22 -22 -22 -23 -22 -21 -21 -21 -20 -19 -17 -16 -16 -15 -14 -14 -13 -13 -12 -13 -12 -10 -10 -10 -9 -9 -9 -9 -9
-24 -24 -24 -24 -24 -24 -24 -24 -24 -24 -25 -24 -23 -23 -23 -23 -22 -22 -22 -23 -22 -20 -20 -20 -20 -18 -17 -15 -15 -15 -14 -13 -13 -13 -12 -13 -12 -11 -10 -9 -11 -10 -10 -11
-25 -24 -25 -25 -25 -25 -24 -25 -25 -25 -25 -25 -24 -24 -24 -23 -23 -23 -22 -22 -23 -22 -20 -20 -20 -19 -18 -16 -15 -15 -14 -14 -14 -13 -13 -13 -13 -12 -13 -11 -10 -11 -11 -11
-26 -25 -25 -26 -26 -25 -25 -25 -25 -25 -25 -25 -25 -25 -25 -24 -24 -23 -23 -22 -22 -23 -23 -21 -20 -19 -19 -18 -17 -16 -15 -15 -14 -14 -13 -14 -14 -13 -12 -12 -11 -11 -11 -10

GFSNGP_500_temp_072.txt.gz
Temp
-12 -12 -12 -11 -11 -11 -11 -11 -10 -9 -10 -9 -9 -9 -9 -9 -9 -8 -7 -7 -8 -7 -7 -7 -7 -7 -7 -8 -7 -6 -6 -5 -5 -5 -5 -5 -5 -6 -6 -6 -6 -6 -6 -5
-13 -13 -13 -12 -12 -12 -12 -11 -11 -10 -10 -11 -10 -9 -10 -10 -10 -10 -9 -8 -8 -8 -8 -7 -7 -7 -7 -7 -8 -7 -6 -6 -6 -5 -5 -5 -5 -5 -5 -6 -5 -5 -5 -6
-14 -14 -13 -13 -13 -13 -13 -13 -13 -12 -11 -11 -11 -11 -10 -10 -10 -10 -10 -9 -9 -9 -8 -8 -7 -7 -7 -7 -7 -7 -7 -7 -7 -6 -6 -5 -5 -5 -5 -5 -5 -5 -5 -5
-14 -14 -14 -13 -13 -14 -13 -13 -14 -14 -13 -12 -12 -12 -12 -11 -11 -10 -10 -10 -10 -9 -9 -8 -8 -7 -8 -8 -8 -8 -7 -7 -7 -7 -6 -6 -5 -5 -5 -5 -5 -5 -5 -5
-14 -15 -14 -14 -14 -14 -14 -14 -14 -14 -14 -14 -13 -12 -13 -13 -12 -11 -11 -10 -10 -10 -9 -9 -9 -8 -8 -8 -8 -9 -8 -8 -7 -8 -7 -6 -6 -6 -5 -5 -6 -5 -5 -5
-14 -15 -14 -14 -15 -15 -15 -14 -15 -15 -15 -15 -14 -13 -14 -14 -13 -12 -11 -11 -11 -10 -10 -10 -9 -9 -8 -8 -8 -8 -8 -7 -8 -8 -8 -7 -7 -7 -6 -6 -6 -6 -5 -5
-15 -15 -15 -16 -16 -16 -16 -15 -16 -15 -15 -15 -15 -14 -14 -13 -13 -13 -12 -11 -11 -11 -10 -10 -9 -9 -9 -8 -8 -8 -8 -8 -7 -9 -8 -8 -7 -7 -7 -7 -7 -6 -6 -5
-15 -16 -16 -16 -16 -16 -16 -16 -16 -17 -16 -15 -15 -15 -15 -14 -14 -13 -13 -12 -12 -11 -11 -11 -11 -10 -9 -9 -9 -9 -8 -9 -8 -9 -9 -8 -8 -8 -8 -8 -7 -6 -6 -6
-16 -16 -16 -16 -16 -16 -16 -16 -16 -17 -18 -18 -18 -17 -16 -15 -15 -15 -14 -13 -12 -12 -12 -12 -11 -11 -10 -9 -9 -9 -9 -8 -9 -9 -9 -9 -9 -9 -9 -8 -7 -7 -7 -6
-16 -16 -16 -16 -17 -17 -17 -17 -17 -17 -18 -18 -19 -19 -19 -18 -18 -17 -15 -15 -14 -12 -12 -13 -12 -12 -12 -10 -9 -9 -8 -8 -8 -9 -9 -9 -9 -9 -9 -9 -8 -8 -8 -8
-17 -17 -17 -17 -17 -17 -18 -18 -18 -18 -18 -18 -18 -18 -19 -19 -19 -19 -18 -16 -15 -14 -12 -13 -13 -13 -13 -12 -11 -10 -10 -9 -8 -8 -9 -9 -9 -9 -9 -8 -8 -9 -9 -8
-17 -17 -17 -17 -17 -18 -18 -18 -18 -18 -19 -19 -19 -18 -18 -18 -19 -19 -19 -19 -17 -15 -14 -13 -14 -13 -13 -11 -11 -11 -11 -10 -10 -8 -9 -8 -8 -9 -9 -9 -9 -9 -9 -9
-18 -18 -18 -18 -18 -18 -18 -18 -18 -18 -18 -18 -19 -19 -19 -18 -18 -18 -19 -19 -19 -18 -15 -14 -14 -14 -14 -13 -11 -11 -10 -11 -9 -9 -11 -11 -10 -10 -9 -8 -9 -9 -9 -9
-18 -18 -18 -18 -18 -19 -19 -19 -19 -19 -18 -18 -19 -19 -18 -18 -19 -19 -19 -19 -19 -19 -18 -15 -14 -14 -14 -13 -12 -11 -12 -11 -10 -10 -10 -10 -10 -10 -9 -10 -8 -8 -9 -9
-18 -19 -18 -18 -19 -19 -19 -19 -19 -19 -19 -19 -19 -19 -18 -19 -19 -19 -19 -19 -18 -19 -19 -17 -15 -14 -14 -14 -13 -12 -11 -11 -11 -11 -10 -10 -11 -10 -9 -9 -9 -9 -9 -8
-19 -19 -19 -19 -19 -20 -20 -20 -20 -19 -19 -19 -19 -19 -19 -19 -19 -19 -19 -19 -18 -18 -18 -18 -16 -15 -15 -13 -13 -12 -11 -11 -11 -11 -10 -10 -10 -10 -10 -9 -9 -9 -9 -10
-19 -20 -20 -20 -20 -20 -20 -20 -20 -20 -20 -19 -20 -20 -19 -19 -19 -19 -19 -19 -19 -18 -18 -18 -18 -17 -15 -15 -14 -13 -12 -11 -11 -11 -10 -10 -10 -10 -9 -10 -9 -8 -8 -9
-20 -20 -20 -21 -21 -21 -20 -20 -20 -20 -20 -20 -21 -21 -20 -20 -20 -20 -20 -19 -19 -19 -19 -19 -19 -18 -17 -15 -14 -13 -13 -12 -11 -10 -11 -11 -10 -10 -9 -9 -9 -9 -9 -9
-20 -20 -21 -22 -21 -21 -21 -21 -21 -21 -21 -21 -22 -22 -21 -21 -21 -21 -21 -20 -19 -19 -19 -19 -19 -19 -19 -18 -16 -14 -13 -13 -11 -11 -11 -12 -11 -10 -10 -9 -9 -9 -9 -9
-21 -21 -21 -22 -22 -21 -22 -22 -22 -22 -22 -22 -22 -22 -22 -22 -21 -21 -21 -21 -20 -19 -19 -19 -19 -18 -19 -19 -19 -17 -14 -13 -12 -11 -11 -11 -10 -10 -10 -10 -10 -10 -9 -9
-22 -22 -22 -23 -23 -23 -23 -23 -22 -23 -23 -23 -23 -22 -22 -22 -22 -21 -21 -22 -21 -20 -20 -19 -18 -18 -18 -19 -19 -19 -17 -14 -12 -12 -12 -11 -11 -10 -10 -10 -10 -9 -9 -9
-22 -23 -23 -23 -23 -23 -23 -23 -23 -23 -23 -23 -23 -23 -23 -22 -22 -22 -22 -22 -22 -21 -21 -20 -19 -19 -19 -19 -19 -19 -19 -16 -13 -12 -12 -12 -12 -11 -10 -10 -10 -10 -9 -9
-22 -23 -23 -23 -23 -24 -24 -24 -24 -24 -23 -23 -23 -23 -23 -23 -23 -23 -22 -22 -22 -22 -21 -21 -20 -19 -19 -19 -19 -20 -19 -18 -15 -13 -12 -12 -11 -12 -11 -10 -10 -10 -10 -9
-23 -23 -24 -24 -24 -24 -24 -24 -24 -24 -24 -24 -24 -24 -23 -23 -23 -23 -23 -23 -22 -22 -21 -21 -20 -20 -19 -19 -19 -19 -19 -19 -17 -14 -13 -13 -12 -11 -12 -12 -10 -9 -9 -10
-23 -24 -24 -24 -25 -24 -24 -24 -25 -25 -24 -24 -24 -24 -24 -24 -24 -23 -23 -23 -23 -22 -22 -21 -21 -20 -20 -20 -20 -19 -18 -18 -17 -15 -14 -14 -13 -13 -12 -12 -12 -12 -11 -11
-24 -25 -25 -25 -25 -25 -25 -25 -25 -26 -25 -25 -25 -24 -25 -24 -24 -24 -23 -23 -23 -23 -22 -22 -21 -21 -21 -20 -20 -18 -18 -18 -18 -16 -15 -14 -14 -13 -12 -12 -13 -13 -12 -12
-25 -25 -26 -26 -25 -25 -26 -26 -26 -26 -26 -26 -25 -25 -25 -25 -24 -24 -24 -24 -23 -23 -23 -22 -21 -21 -21 -20 -20 -19 -18 -17 -17 -16 -16 -15 -14 -14 -13 -13 -13 -13 -12 -11

GFSNGP_500_temp_075.txt.gz
Temp
-13 -12 -12 -12 -11 -11 -11 -10 -10 -10 -10 -10 -9 -9 -8 -8 -9 -9 -8 -8 -8 -8 -8 -9 -8 -8 -7 -6 -6 -6 -6 -6 -6 -6 -6 -5 -5 -5 -5 -5 -5 -5 -5 -5
-13 -13 -12 -12 -12 -11 -11 -10 -10 -10 -10 -10 -10 -10 -10 -9 -8 -9 -9 -8 -8 -8 -8 -9 -9 -8 -8 -7 -7 -7 -7 -6 -6 -6 -5 -5 -5 -5 -5 -5 -5 -5 -5 -5
-14 -14 -13 -13 -13 -13 -12 -12 -12 -11 -11 -11 -11 -11 -10 -10 -10 -9 -9 -9 -9 -9 -9 -9 -9 -9 -8 -8 -8 -8 -8 -8 -8 -7 -6 -6 -6 -5 -5 -5 -5 -5 -5 -5
-14 -14 -14 -13 -13 -13 -13 -13 -13 -12 -12 -12 -12 -12 -12 -11 -10 -10 -9 -9 -9 -9 -9 -9 -9 -9 -9 -9 -9 -8 -7 -8 -8 -8 -7 -7 -6 -6 -6 -6 -5 -5 -5 -5
-15 -14 -14 -14 -14 -14 -14 -13 -13 -13 -13 -13 -13 -13 -13 -13 -11 -11 -10 -10 -9 -10 -9 -9 -9 -9 -9 -9 -9 -9 -8 -8 -8 -9 -8 -7 -7 -6 -6 -6 -6 -6 -6 -6
-15 -15 -14 -14 -14 -14 -14 -14 -14 -14 -13 -13 -13 -13 -12 -12 -12 -11 -11 -11 -10 -10 -10 -9 -9 -9 -9 -9 -9 -9 -9 -8 -8 -8 -9 -8 -8 -7 -7 -6 -6 -6 -6 -6
-15 -14 -14 -14 -14 -14 -14 -14 -14 -14 -14 -14 -13 -13 -13 -13 -13 -12 -12 -11 -11 -11 -10 -10 -10 -9 -9 -9 -9 -9 -9 -9 -9 -8 -8 -8 -8 -7 -7 -7 -7 -6 -6 -6
-16 -15 -15 -15 -14 -14 -15 -14 -14 -14 -14 -14 -14 -14 -14 -13 -13 -13 -12 -12 -11 -11 -11 -11 -10 -10 -10 -9 -9 -9 -9 -9 -9 -9 -9 -9 -9 -8 -8 -7 -7 -8 -7 -6
-16 -16 -16 -16 -16 -16 -16 -15 -15 -15 -15 -15 -15 -15 -15 -15 -13 -13 -13 -13 -12 -11 -11 -11 -11 -11 -10 -10 -10 -10 -9 -9 -9 -9 -10 -9 -9 -9 -8 -8 -8 -8 -7 -7
-17 -17 -17 -17 -16 -16 -16 -15 -15 -15 -15 -15 -15 -15 -15 -15 -16 -16 -15 -14 -13 -13 -12 -12 -12 -11 -11 -11 -10 -10 -10 -9 -9 -9 -9 -9 -9 -7 -8 -8 -9 -8 -8 -8
-17 -17 -17 -17 -17 -16 -16 -16 -16 -16 -16 -15 -15 -16 -16 -16 -16 -16 -17 -17 -15 -14 -14 -13 -13 -13 -11 -11 -11 -10 -10 -10 -9 -9 -9 -9 -9 -9 -8 -8 -9 -9 -9 -9
-17 -17 -17 -17 -17 -17 -17 -17 -17 -17 -17 -16 -16 -16 -16 -16 -17 -17 -17 -16 -17 -17 -15 -14 -14 -13 -14 -11 -11 -12 -11 -10 -10 -9 -9 -9 -9 -9 -9 -9 -9 -9 -8 -8
-17 -18 -17 -17 -17 -17 -17 -17 -17 -17 -17 -17 -17 -17 -17 -17 -17 -17 -17 -16 -16 -17 -17 -17 -14 -14 -14 -14 -12 -11 -12 -11 -10 -10 -10 -10 -9 -9 -9 -9 -9 -8 -9 -8
-18 -18 -18 -18 -18 -18 -18 -18 -18 -17 -18 -17 -17 -17 -17 -18 -18 -17 -17 -17 -17 -17 -17 -18 -18 -16 -14 -14 -14 -12 -12 -12 -12 -11 -10 -10 -9 -9 -9 -9 -9 -9 -8 -9
-18 -18 -18 -18 -18 -18 -18 -18 -18 -18 -18 -18 -19 -19 -18 -18 -18 -18 -18 -18 -18 -18 -17 -18 -18 -19 -18 -15 -14 -14 -13 -12 -12 -12 -11 -10 -10 -9 -9 -9 -9 -9 -9 -8
-19 -18 -18 -18 -18 -18 -18 -19 -19 -19 -19 -19 -19 -19 -19 -19 -19 -19 -19 -18 -18 -18 -18 -18 -18 -19 -19 -19 -16 -14 -14 -13 -12 -12 -11 -11 -10 -10 -9 -9 -9 -9 -10 -9
-19 -19 -19 -19 -19 -19 -20 -20 -20 -20 -20 -20 -20 -20 -19 -19 -19 -19 -19 -19 -19 -18 -18 -18 -18 -18 -18 -19 -19 -18 -15 -14 -13 -12 -11 -11 -11 -10 -10 -10 -9 -10 -10 -10
-20 -20 -20 -20 -20 -20 -20 -21 -21 -21 -21 -20 -20 -20 -20 -21 -21 -21 -21 -21 -20 -19 -19 -18 -18 -18 -18 -18 -19 -18 -19 -16 -14 -13 -12 -11 -11 -11 -10 -10 -10 -10 -10 -9
-20 -21 -21 -21 -21 -20 -21 -21 -21 -21 -21 -21 -21 -21 -21 -22 -21 -21 -21 -21 -21 -20 -19 -19 -18 -18 -18 -19 -19 -19 -18 -19 -17 -14 -13 -12 -11 -11 -11 -10 -10 -10 -9 -9
-21 -21 -21 -21 -22 -22 -22 -22 -22 -22 -22 -22 -22 -22 -22 -22 -22 -22 -21 -21 -21 -21 -20 -19 -19 -19 -19 -19 -19 -18 -18 -18 -18 -17 -14 -13 -12 -11 -10 -11 -11 -10 -9 -10
-21 -22 -22 -22 -22 -23 -23 -23 -22 -22 -22 -23 -23 -23 -23 -23 -22 -22 -22 -22 -21 -21 -21 -20 -19 -19 -19 -18 -18 -18 -18 -19 -19 -18 -17 -14 -13 -12 -11 -11 -11 -11 -10 -10
-22 -22 -22 -22 -22 -23 -23 -23 -23 -23 -23 -23 -23 -23 -23 -23 -23 -23 -23 -22 -22 -22 -22 -21 -20 -20 -20 -19 -18 -18 -18 -18 -19 -19 -19 -17 -14 -12 -12 -11 -11 -11 -11 -10
-22 -22 -23 -23 -23 -23 -23 -23 -24 -24 -24 -24 -24 -24 -23 -23 -24 -23 -23 -23 -22 -22 -22 -22 -21 -20 -20 -20 -19 -18 -18 -19 -19 -20 -20 -18 -16 -14 -13 -12 -11 -11 -10 -11
-22 -22 -23 -23 -23 -24 -23 -24 -24 -24 -24 -24 -24 -24 -24 -24 -24 -24 -24 -23 -23 -23 -22 -22 -22 -20 -20 -20 -20 -18 -18 -18 -19 -19 -19 -19 -18 -16 -14 -13 -12 -11 -11 -11
-22 -23 -24 -24 -25 -24 -24 -24 -24 -24 -25 -25 -24 -24 -25 -24 -24 -24 -24 -24 -23 -23 -22 -22 -22 -21 -20 -20 -20 -20 -19 -19 -19 -19 -19 -18 -19 -17 -16 -14 -13 -12 -12 -12
-24 -24 -25 -26 -25 -25 -25 -24 -24 -24 -25 -25 -25 -25 -25 -25 -24 -24 -24 -24 -24 -23 -23 -23 -22 -22 -21 -20 -20 -19 -19 -19 -19 -19 -18 -18 -17 -18 -15 -15 -14 -13 -12 -12
-25 -26 -26 -26 -26 -25 -25 -25 -25 -25 -25 -25 -25 -25 -25 -25 -25 -25 -25 -24 -24 -24 -23 -23 -22 -22 -22 -21 -20 -20 -20 -20 -19 -18 -19 -19 -18 -16 -17 -16 -15 -14 -14 -13

GFSNGP_500_temp_078.txt.gz
Temp
-13 -12 -12 -12 -11 -11 -11 -11 -12 -12 -10 -9 -9 -9 -9 -9 -9 -9 -9 -9 -9 -8 -9 -8 -8 -8 -8 -8 -7 -7 -6 -7 -7 -7 -6 -6 -7 -7 -6 -6 -5 -5 -5 -5
-14 -13 -12 -11 -11 -11 -11 -11 -12 -12 -10 -10 -10 -9 -9 -9 -9 -9 -9 -9 -9 -9 -8 -8 -9 -9 -8 -8 -8 -7 -6 -6 -6 -6 -6 -6 -6 -6 -6 -6 -6 -5 -5 -5
-14 -13 -13 -13 -12 -12 -11 -11 -11 -12 -10 -11 -10 -10 -10 -9 -9 -9 -9 -9 -8 -8 -9 -8 -8 -8 -8 -8 -8 -8 -8 -7 -7 -7 -6 -6 -6 -6 -6 -6 -6 -5 -6 -5
-15 -14 -14 -13 -13 -13 -13 -12 -12 -11 -12 -11 -11 -10 -10 -9 -9 -9 -9 -9 -9 -8 -8 -8 -8 -8 -9 -9 -9 -9 -8 -8 -8 -7 -7 -7 -6 -6 -6 -6 -6 -6 -6 -5
-14 -15 -14 -14 -14 -13 -13 -12 -12 -12 -12 -12 -12 -11 -11 -10 -10 -9 -9 -9 -9 -9 -9 -9 -9 -9 -9 -9 -9 -9 -9 -9 -9 -8 -8 -8 -7 -6 -7 -6 -6 -6 -6 -6
-14 -14 -14 -13 -14 -14 -13 -13 -13 -12 -12 -12 -12 -13 -11 -11 -11 -10 -10 -9 -9 -9 -9 -9 -8 -9 -9 -9 -9 -9 -9 -9 -8 -8 -8 -8 -7 -7 -7 -7 -7 -6 -6 -6
-15 -15 -14 -14 -14 -14 -14 -13 -14 -13 -13 -13 -13 -13 -12 -13 -12 -12 -11 -10 -10 -10 -10 -9 -9 -8 -8 -9 -9 -9 -9 -9 -9 -9 -8 -8 -7 -8 -7 -7 -7 -7 -7 -6
-15 -15 -14 -14 -14 -14 -14 -14 -14 -14 -14 -13 -13 -13 -13 -13 -13 -13 -12 -12 -11 -10 -10 -10 -9 -9 -9 -8 -8 -9 -9 -9 -9 -9 -9 -9 -9 -9 -8 -8 -8 -8 -8 -7
-15 -15 -15 -15 -14 -14 -14 -14 -14 -14 -14 -14 -14 -14 -14 -13 -13 -13 -13 -13 -12 -12 -11 -11 -10 -10 -9 -9 -9 -8 -8 -9 -9 -9 -9 -9 -9 -9 -9 -9 -8 -8 -8 -8
-16 -16 -16 -16 -16 -15 -15 -15 -15 -15 -15 -15 -15 -15 -15 -15 -15 -14 -14 -13 -13 -13 -12 -12 -11 -11 -10 -10 -9 -9 -9 -9 -9 -9 -9 -9 -9 -9 -9 -8 -8 -8 -8 -8
-17 -17 -16 -16 -16 -16 -16 -17 -16 -16 -16 -16 -15 -15 -15 -15 -14 -14 -14 -14 -14 -14 -14 -13 -12 -12 -11 -11 -11 -10 -10 -9 -9 -9 -9 -9 -9 -9 -9 -9 -8 -8 -8 -8
-17 -17 -17 -17 -17 -17 -17 -17 -17 -17 -16 -16 -16 -16 -16 -16 -15 -15 -15 -15 -15 -15 -15 -15 -15 -14 -13 -12 -11 -11 -10 -10 -10 -9 -9 -9 -9 -9 -9 -9 -8 -8 -8 -7
-17 -17 -17 -17 -17 -17 -17 -17 -17 -17 -17 -16 -16 -16 -16 -16 -16 -16 -16 -16 -15 -16 -16 -16 -16 -15 -14 -14 -13 -12 -11 -11 -11 -11 -10 -9 -9 -9 -9 -10 -9 -8 -7 -8
-18 -18 -17 -17 -17 -17 -17 -17 -17 -17 -17 -17 -16 -16 -16 -16 -16 -16 -16 -16 -16 -16 -16 -16 -16 -16 -16 -15 -15 -15 -13 -12 -11 -11 -11 -10 -9 -9 -9 -9 -9 -9 -8 -8
-18 -18 -17 -18 -18 -18 -18 -18 -17 -17 -17 -17 -17 -17 -17 -16 -16 -16 -17 -17 -17 -17 -17 -17 -16 -16 -16 -16 -16 -15 -15 -16 -13 -12 -12 -11 -11 -10 -9 -9 -9 -9 -9 -9
-18 -18 -17 -18 -19 -18 -18 -18 -18 -18 -18 -18 -18 -18 -18 -18 -18 -18 -18 -18 -18 -18 -18 -18 -17 -17 -17 -17 -16 -16 -16 -16 -17 -14 -13 -12 -12 -11 -10 -9 -9 -9 -9 -9
-19 -18 -18 -18 -19 -19 -19 -19 -19 -19 -19 -19 -19 -19 -19 -19 -19 -19 -19 -19 -18 -18 -18 -18 -18 -18 -18 -18 -17 -16 -16 -16 -17 -17 -16 -14 -13 -12 -11 -10 -10 -9 -10 -10
-19 -19 -19 -19 -19 -19 -20 -20 -20 -20 -20 -20 -20 -20 -20 -20 -20 -20 -20 -20 -19 -19 -19 -19 -19 -19 -19 -18 -18 -17 -16 -16 -17 -17 -18 -17 -15 -13 -12 -12 -11 -10 -9 -10
-20 -20 -20 -20 -20 -20 -20 -20 -20 -20 -20 -20 -21 -21 -21 -21 -20 -20 -21 -21 -21 -21 -21 -20 -20 -20 -19 -19 -18 -17 -17 -17 -17 -17 -18 -18 -17 -15 -13 -12 -12 -11 -10 -10
-20 -20 -21 -21 -21 -21 -21 -21 -21 -21 -21 -21 -21 -21 -21 -21 -22 -22 -22 -21 -22 -22 -21 -21 -20 -20 -20 -19 -19 -18 -18 -17 -17 -17 -17 -18 -18 -17 -15 -13 -12 -12 -11 -10
-21 -21 -21 -21 -21 -21 -22 -22 -22 -22 -22 -22 -22 -22 -22 -22 -22 -22 -22 -22 -22 -22 -22 -22 -21 -21 -20 -20 -19 -19 -18 -18 -17 -18 -18 -19 -18 -18 -17 -15 -13 -12 -12 -11
-21 -22 -22 -22 -22 -22 -22 -22 -22 -22 -22 -23 -23 -23 -23 -23 -23 -23 -23 -23 -22 -22 -23 -22 -22 -21 -21 -20 -20 -19 -19 -18 -18 -18 -18 -18 -18 -18 -18 -17 -15 -13 -12 -12
-21 -22 -22 -22 -22 -23 -22 -22 -22 -22 -23 -23 -23 -23 -23 -23 -24 -23 -23 -23 -23 -23 -23 -23 -22 -22 -22 -20 -20 -20 -19 -19 -18 -17 -17 -17 -18 -18 -18 -19 -17 -15 -13 -12
-22 -22 -22 -23 -23 -23 -23 -23 -23 -23 -23 -23 -24 -24 -24 -24 -24 -24 -23 -23 -24 -24 -24 -23 -23 -22 -22 -22 -20 -20 -20 -19 -19 -18 -17 -17 -18 -18 -19 -19 -19 -18 -15 -13
-22 -23 -24 -24 -24 -24 -24 -23 -23 -23 -24 -24 -24 -24 -24 -24 -24 -24 -24 -24 -24 -24 -23 -24 -23 -23 -23 -22 -21 -20 -20 -19 -19 -18 -18 -18 -19 -19 -19 -19 -19 -19 -17 -15
-23 -24 -25 -25 -25 -26 -25 -25 -25 -24 -24 -24 -24 -24 -25 -25 -25 -25 -25 -25 -24 -24 -24 -24 -24 -23 -23 -23 -21 -20 -20 -19 -19 -19 -19 -18 -19 -19 -19 -18 -19 -19 -19 -17
-24 -25 -25 -26 -26 -26 -26 -25 -25 -25 -24 -24 -25 -25 -25 -25 -25 -25 -25 -25 -25 -24 -24 -24 -24 -23 -23 -23 -22 -21 -21 -20 -19 -19 -18 -19 -19 -19 -18 -18 -18 -16 -16 -14

GFSNGP_500_temp_084.txt.gz
Temp
-12 -13 -13 -11 -11 -12 -11 -10 -11 -10 -10 -10 -10 -9 -9 -9 -8 -8 -8 -7 -8 -7 -7 -7 -7 -6 -6 -6 -6 -6 -6 -7 -6 -7 -6 -6 -6 -6 -6 -6 -6 -6 -6 -6
-14 -13 -12 -13 -12 -12 -11 -10 -12 -11 -10 -9 -9 -9 -9 -9 -9 -8 -8 -8 -8 -9 -8 -8 -8 -6 -6 -6 -6 -6 -6 -7 -7 -6 -6 -6 -6 -6 -6 -6 -6 -6 -6 -6
-13 -13 -12 -12 -13 -12 -11 -12 -12 -11 -9 -8 -10 -10 -10 -9 -9 -9 -8 -8 -8 -8 -8 -7 -8 -7 -6 -7 -7 -7 -7 -6 -6 -6 -7 -6 -7 -6 -6 -6 -6 -6 -6 -6
-15 -14 -14 -14 -13 -12 -12 -12 -13 -12 -10 -10 -11 -10 -10 -9 -9 -9 -9 -8 -8 -8 -8 -8 -8 -8 -7 -7 -8 -7 -7 -7 -8 -8 -7 -7 -7 -7 -7 -7 -7 -6 -6 -6
-15 -15 -15 -14 -14 -15 -15 -15 -13 -11 -11 -10 -10 -9 -10 -10 -10 -10 -9 -9 -9 -8 -8 -8 -9 -9 -8 -8 -9 -8 -8 -8 -8 -7 -7 -7 -7 -7 -7 -7 -7 -7 -7 -7
-16 -15 -15 -15 -14 -14 -14 -16 -13 -12 -12 -11 -10 -11 -11 -11 -10 -9 -9 -9 -9 -9 -9 -9 -9 -9 -9 -9 -9 -9 -8 -8 -8 -8 -7 -7 -7 -7 -7 -7 -7 -7 -7 -7
-17 -17 -16 -15 -14 -14 -15 -16 -14 -13 -13 -13 -12 -11 -9 -9 -10 -10 -10 -10 -10 -9 -9 -9 -9 -9 -9 -9 -9 -9 -8 -8 -8 -8 -7 -7 -7 -7 -7 -7 -7 -7 -8 -8
-16 -18 -17 -15 -15 -15 -14 -15 -14 -13 -12 -12 -12 -12 -11 -10 -11 -11 -10 -10 -10 -9 -9 -9 -9 -9 -9 -9 -9 -9 -9 -9 -8 -8 -8 -8 -7 -7 -7 -7 -7 -8 -8 -8
-16 -15 -14 -13 -14 -15 -15 -15 -15 -15 -14 -14 -14 -13 -12 -11 -11 -11 -11 -11 -11 -10 -10 -9 -10 -9 -9 -9 -9 -9 -9 -9 -9 -9 -9 -8 -8 -8 -7 -7 -7 -7 -7 -8
-16 -15 -15 -14 -15 -15 -15 -15 -14 -14 -14 -14 -14 -13 -13 -12 -12 -12 -11 -12 -12 -11 -11 -10 -10 -10 -10 -10 -10 -10 -9 -9 -9 -9 -9 -8 -8 -8 -8 -8 -7 -7 -7 -7
-16 -16 -15 -16 -15 -15 -15 -15 -15 -14 -14 -14 -14 -14 -13 -13 -13 -13 -13 -12 -12 -12 -12 -11 -11 -11 -11 -11 -10 -10 -10 -10 -10 -9 -9 -9 -9 -9 -8 -9 -8 -8 -8 -7
-17 -16 -16 -16 -16 -16 -16 -15 -15 -15 -15 -15 -15 -14 -14 -14 -14 -14 -14 -13 -13 -13 -13 -12 -12 -12 -12 -12 -12 -11 -11 -11 -10 -10 -10 -9 -9 -9 -9 -9 -9 -8 -9 -8
-17 -17 -17 -17 -17 -17 -16 -16 -15 -15 -15 -15 -15 -15 -15 -14 -14 -14 -14 -14 -14 -14 -13 -13 -13 -13 -13 -12 -12 -12 -12 -12 -12 -11 -10 -10 -10 -9 -9 -9 -9 -9 -9 -9
-18 -17 -17 -17 -17 -17 -17 -17 -17 -16 -16 -16 -16 -16 -16 -15 -16 -16 -16 -16 -15 -15 -15 -15 -14 -14 -14 -13 -13 -13 -13 -13 -13 -13 -13 -12 -11 -10 -10 -9 -9 -9 -9 -9
-18 -18 -18 -17 -17 -17 -17 -17 -18 -18 -17 -17 -17 -17 -17 -16 -16 -17 -16 -16 -16 -16 -16 -16 -16 -16 -15 -15 -15 -15 -15 -14 -15 -15 -14 -14 -13 -13 -12 -11 -10 -10 -9 -9
-18 -18 -18 -18 -18 -18 -17 -17 -18 -18 -18 -17 -18 -17 -18 -17 -17 -17 -17 -17 -16 -16 -16 -16 -16 -16 -16 -16 -15 -16 -15 -15 -15 -15 -15 -15 -15 -14 -14 -14 -13 -12 -11 -11
-19 -19 -20 -19 -19 -18 -18 -18 -18 -18 -18 -18 -17 -17 -18 -18 -17 -17 -17 -17 -17 -17 -16 -16 -16 -16 -16 -16 -16 -16 -16 -15 -16 -15 -15 -15 -15 -15 -15 -15 -14 -14 -14 -13
-19 -19 -19 -19 -19 -19 -19 -19 -19 -18 -18 -18 -18 -18 -18 -19 -18 -18 -18 -18 -18 -17 -17 -17 -17 -17 -17 -17 -16 -16 -16 -16 -16 -16 -16 -16 -16 -16 -16 -15 -15 -15 -14 -14
-20 -20 -20 -20 -20 -19 -19 -19 -19 -19 -19 -19 -19 -19 -19 -19 -19 -18 -18 -19 -19 -19 -18 -18 -19 -19 -18 -18 -18 -18 -17 -17 -17 -17 -16 -16 -16 -16 -16 -16 -15 -15 -15 -15
-20 -20 -20 -20 -20 -20 -20 -20 -20 -20 -20 -20 -20 -20 -20 -19 -20 -20 -20 -20 -20 -20 -20 -19 -19 -19 -19 -19 -19 -19 -19 -19 -19 -18 -18 -18 -18 -18 -18 -17 -18 -17 -16 -16
-20 -20 -20 -20 -20 -20 -21 -21 -21 -21 -21 -20 -20 -20 -21 -21 -21 -20 -20 -21 -21 -21 -21 -21 -21 -21 -21 -20 -20 -20 -21 -21 -21 -21 -20 -20 -21 -20 -20 -20 -20 -19 -18 -18
-21 -21 -21 -21 -21 -21 -21 -21 -21 -20 -21 -21 -20 -21 -21 -21 -21 -21 -21 -21 -21 -21 -22 -21 -21 -22 -22 -22 -22 -22 -22 -22 -22 -22 -22 -21 -21 -21 -20 -20 -20 -19 -19 -18
-21 -21 -21 -21 -21 -21 -22 -22 -22 -22 -20 -21 -21 -21 -21 -22 -21 -21 -21 -22 -22 -22 -22 -22 -22 -22 -22 -22 -22 -22 -22 -23 -23 -22 -22 -21 -21 -21 -20 -20 -19 -19 -18 -18
-21 -21 -21 -21 -22 -23 -23 -23 -23 -23 -22 -22 -22 -22 -22 -22 -21 -21 -21 -22 -22 -23 -23 -23 -22 -23 -23 -23 -23 -23 -23 -23 -23 -23 -21 -21 -21 -21 -20 -20 -19 -18 -18 -17
-21 -21 -21 -22 -23 -24 -24 -24 -24 -24 -24 -23 -23 -22 -22 -22 -22 -21 -22 -22 -23 -23 -23 -23 -23 -23 -23 -23 -23 -24 -24 -23 -23 -23 -21 -21 -21 -20 -20 -19 -19 -19 -18 -17
-20 -21 -21 -22 -23 -24 -24 -24 -25 -24 -24 -24 -24 -23 -23 -22 -22 -22 -23 -23 -23 -23 -23 -23 -24 -24 -24 -23 -23 -24 -24 -23 -23 -23 -22 -21 -21 -20 -20 -20 -19 -18 -18 -17
-21 -21 -22 -22 -23 -24 -24 -24 -25 -25 -25 -25 -24 -24 -23 -23 -23 -23 -23 -24 -24 -24 -24 -24 -24 -24 -24 -24 -24 -24 -24 -24 -23 -23 -22 -21 -20 -21 -20 -20 -19 -18 -18 -17

GFSNGP_500_temp_087.txt.gz
Temp
-12 -12 -12 -11 -12 -11 -10 -10 -11 -9 -9 -10 -10 -9 -8 -9 -8 -8 -8 -8 -7 -8 -8 -7 -6 -6 -6 -6 -6 -6 -6 -6 -6 -6 -7 -7 -7 -7 -7 -7 -7 -7 -7 -6
-11 -12 -12 -11 -10 -11 -12 -11 -11 -10 -10 -10 -9 -9 -8 -8 -9 -9 -9 -9 -9 -8 -8 -7 -7 -7 -7 -7 -6 -6 -6 -6 -6 -6 -7 -7 -8 -7 -7 -7 -7 -7 -7 -7
-13 -13 -13 -12 -13 -13 -13 -12 -11 -9 -9 -9 -10 -10 -10 -9 -9 -9 -9 -9 -9 -9 -8 -7 -7 -6 -6 -6 -6 -6 -6 -6 -6 -6 -6 -7 -8 -8 -7 -7 -7 -7 -7 -7
-13 -13 -13 -13 -12 -13 -13 -13 -11 -10 -9 -9 -10 -11 -11 -11 -10 -10 -10 -9 -9 -9 -9 -9 -9 -8 -7 -7 -7 -6 -6 -6 -7 -6 -7 -7 -7 -8 -8 -7 -7 -7 -7 -7
-14 -14 -13 -14 -13 -13 -14 -13 -12 -11 -10 -9 -10 -10 -11 -11 -11 -11 -10 -10 -10 -9 -10 -10 -9 -9 -8 -8 -7 -7 -7 -7 -8 -8 -7 -7 -7 -7 -8 -7 -7 -7 -7 -7
-15 -15 -14 -14 -13 -14 -15 -13 -12 -12 -11 -10 -10 -10 -11 -11 -11 -10 -11 -10 -10 -10 -10 -10 -10 -9 -9 -9 -9 -7 -7 -7 -9 -10 -9 -9 -7 -8 -8 -8 -7 -7 -7 -7
-16 -16 -15 -14 -13 -14 -15 -14 -13 -13 -12 -11 -11 -10 -10 -10 -10 -10 -10 -10 -10 -10 -10 -10 -10 -10 -10 -10 -10 -9 -9 -8 -8 -8 -8 -7 -7 -7 -7 -7 -7 -7 -7 -7
-16 -16 -16 -13 -14 -14 -15 -15 -13 -13 -11 -11 -11 -10 -11 -11 -11 -11 -11 -11 -11 -10 -10 -10 -10 -10 -10 -10 -9 -9 -9 -9 -9 -9 -9 -8 -8 -7 -7 -7 -7 -7 -7 -7
-16 -15 -14 -15 -15 -15 -15 -16 -16 -15 -14 -13 -12 -12 -13 -12 -11 -11 -11 -11 -11 -10 -10 -11 -10 -10 -9 -9 -10 -10 -10 -9 -9 -9 -9 -8 -8 -8 -8 -7 -7 -7 -7 -7
-16 -16 -15 -15 -15 -15 -16 -16 -16 -15 -15 -15 -14 -14 -13 -12 -12 -12 -12 -12 -12 -11 -11 -11 -11 -10 -10 -10 -10 -10 -10 -10 -10 -9 -9 -9 -9 -9 -8 -8 -8 -7 -7 -7
-16 -16 -15 -16 -16 -15 -16 -16 -16 -16 -15 -15 -15 -15 -14 -13 -13 -13 -13 -13 -12 -12 -11 -11 -11 -11 -11 -10 -11 -11 -10 -10 -10 -10 -10 -10 -9 -9 -9 -8 -8 -8 -8 -8
-17 -16 -15 -15 -16 -17 -16 -16 -15 -16 -16 -15 -15 -15 -14 -14 -14 -13 -13 -13 -13 -13 -13 -12 -12 -12 -11 -11 -11 -11 -11 -11 -11 -11 -11 -10 -10 -10 -10 -9 -9 -9 -9 -8
-18 -18 -18 -17 -17 -17 -17 -17 -16 -16 -15 -16 -15 -15 -15 -14 -14 -13 -13 -13 -13 -13 -13 -13 -13 -13 -13 -12 -12 -12 -12 -12 -12 -12 -12 -11 -11 -11 -11 -10 -10 -10 -10 -10
-18 -18 -18 -18 -17 -17 -17 -17 -17 -16 -16 -16 -16 -16 -15 -15 -15 -14 -14 -14 -14 -14 -14 -13 -13 -13 -13 -13 -13 -13 -13 -12 -12 -12 -12 -12 -12 -12 -12 -12 -11 -11 -10 -10
-18 -18 -18 -18 -18 -17 -17 -17 -17 -17 -16 -16 -16 -16 -15 -15 -16 -16 -15 -15 -15 -15 -15 -15 -15 -14 -14 -14 -14 -14 -14 -14 -13 -13 -13 -13 -13 -13 -13 -12 -12 -12 -12 -12
-19 -18 -18 -18 -18 -18 -18 -17 -17 -17 -17 -17 -17 -16 -17 -16 -16 -17 -17 -17 -16 -17 -16 -16 -16 -16 -16 -16 -15 -15 -15 -15 -15 -15 -15 -15 -15 -14 -14 -14 -14 -13 -13 -13
-19 -19 -19 -19 -19 -18 -18 -18 -18 -18 -18 -18 -17 -17 -17 -17 -17 -17 -17 -17 -17 -17 -17 -17 -17 -17 -16 -16 -16 -16 -16 -16 -15 -15 -15 -15 -15 -15 -15 -15 -15 -15 -14 -14
-20 -20 -20 -19 -19 -20 -19 -19 -19 -19 -19 -18 -18 -18 -17 -18 -19 -18 -17 -17 -17 -17 -17 -17 -17 -17 -17 -17 -17 -17 -16 -16 -16 -16 -16 -16 -15 -15 -15 -15 -15 -15 -15 -15
-20 -20 -20 -20 -20 -20 -20 -19 -19 -19 -19 -19 -19 -19 -18 -18 -19 -18 -18 -18 -18 -18 -18 -18 -18 -18 -18 -18 -18 -18 -18 -18 -17 -17 -17 -17 -17 -17 -17 -16 -16 -15 -15 -15
-20 -20 -20 -20 -20 -20 -20 -20 -20 -20 -20 -20 -20 -20 -19 -19 -20 -19 -19 -19 -19 -19 -19 -19 -19 -19 -18 -19 -19 -19 -19 -18 -18 -18 -18 -18 -18 -18 -18 -17 -17 -16 -16 -16
-20 -20 -20 -20 -21 -21 -21 -21 -20 -20 -21 -21 -21 -20 -20 -20 -20 -20 -20 -20 -20 -20 -20 -20 -20 -20 -20 -20 -19 -19 -19 -19 -19 -19 -20 -20 -20 -20 -19 -18 -18 -18 -17 -17
-20 -20 -20 -20 -20 -20 -20 -20 -21 -21 -21 -21 -21 -21 -21 -21 -21 -21 -21 -21 -21 -21 -21 -21 -21 -21 -21 -20 -20 -20 -20 -20 -21 -21 -21 -20 -21 -22 -21 -20 -20 -20 -19 -19
-20 -20 -20 -20 -20 -20 -20 -21 -21 -22 -22 -22 -22 -21 -20 -21 -21 -21 -21 -21 -21 -21 -21 -21 -21 -21 -22 -21 -21 -21 -21 -21 -21 -21 -21 -22 -22 -22 -22 -21 -22 -21 -20 -20
-20 -20 -20 -20 -20 -20 -21 -22 -23 -23 -23 -23 -23 -22 -21 -21 -21 -21 -20 -22 -21 -21 -22 -22 -22 -22 -22 -22 -22 -22 -22 -22 -22 -22 -22 -22 -22 -22 -22 -22 -22 -21 -20 -20
-20 -20 -20 -20 -21 -21 -21 -22 -23 -24 -24 -24 -24 -23 -23 -22 -22 -22 -22 -22 -22 -21 -22 -22 -22 -22 -22 -22 -23 -22 -22 -22 -22 -23 -23 -23 -23 -22 -22 -22 -22 -21 -20 -20
-20 -20 -20 -21 -21 -21 -22 -23 -24 -24 -24 -25 -25 -24 -23 -23 -22 -22 -22 -22 -22 -22 -22 -23 -23 -23 -23 -23 -23 -23 -23 -23 -23 -23 -23 -23 -23 -22 -22 -22 -21 -21 -20 -20
-20 -20 -20 -21 -21 -21 -22 -23 -23 -24 -24 -25 -25 -24 -24 -24 -23 -23 -23 -23 -22 -23 -23 -23 -24 -24 -24 -24 -24 -24 -23 -23 -23 -24 -23 -24 -24 -23 -22 -22 -21 -21 -20 -20